"read_dt","SO2 (ppb)","flags","PMT voltage (V)","lamp voltage (V)","lamp intensity (Hz)","internal temp (C)","react chamber temp (C)","sample flow (l/min)","pres (mmHg)","SO2 bkg (ppb)","SO2 coefficient"
2017-05-18 00:00:00,1646E-3,5C000400,-0724,0838,11981,031.1,045.5,0.214,748.4,01.17,0.508
2017-05-18 00:01:00,1701E-3,5C000400,-0724,0837,11992,031.1,045.5,0.215,748.4,01.17,0.508
2017-05-18 00:02:00,1715E-3,5C000400,-0724,0837,12030,031.1,045.6,0.215,748.4,01.17,0.508
2017-05-18 00:03:00,1569E-3,5C000400,-0724,0838,12041,031.1,045.6,0.214,748.3,01.17,0.508
2017-05-18 00:04:00,1755E-3,5C000400,-0724,0838,11984,031.2,045.5,0.215,748.3,01.17,0.508
2017-05-18 00:05:00,1791E-3,5C000400,-0724,0837,11965,031.2,045.5,0.214,748.4,01.17,0.508
2017-05-18 00:06:00,1742E-3,5C000400,-0724,0837,11871,031.2,045.5,0.214,748.4,01.17,0.508
2017-05-18 00:07:00,1781E-3,5C000400,-0724,0837,12122,031.2,045.5,0.214,748.4,01.17,0.508
2017-05-18 00:08:00,1707E-3,5C000400,-0724,0837,12031,031.2,045.5,0.214,748.4,01.17,0.508
2017-05-18 00:09:00,1771E-3,5C000400,-0724,0838,12127,031.2,045.5,0.214,748.4,01.17,0.508
2017-05-18 00:10:00,1850E-3,5C000400,-0724,0838,12070,031.2,045.5,0.214,748.4,01.17,0.508
2017-05-18 00:11:00,1808E-3,5C000400,-0724,0837,12086,031.2,045.5,0.214,748.4,01.17,0.508
2017-05-18 00:12:00,1702E-3,5C000400,-0724,0837,11966,031.2,045.5,0.214,748.4,01.17,0.508
2017-05-18 00:13:00,1559E-3,5C000400,-0724,0838,12005,031.2,045.5,0.214,748.4,01.17,0.508
2017-05-18 00:14:00,1771E-3,5C000400,-0724,0837,12050,031.2,045.6,0.214,748.4,01.17,0.508
2017-05-18 00:15:00,1669E-3,5C000400,-0724,0838,12083,031.2,045.5,0.214,748.4,01.17,0.508
2017-05-18 00:16:00,1785E-3,5C000400,-0724,0838,11976,031.1,045.6,0.214,748.4,01.17,0.508
2017-05-18 00:17:00,1829E-3,5C000400,-0724,0837,11992,031.0,045.5,0.214,748.4,01.17,0.508
2017-05-18 00:18:00,1720E-3,5C000400,-0724,0837,12105,030.9,045.5,0.214,748.5,01.17,0.508
2017-05-18 00:19:00,1656E-3,5C000400,-0724,0836,12022,030.7,045.5,0.214,748.5,01.17,0.508
2017-05-18 00:20:00,1624E-3,5C000400,-0724,0837,12079,030.4,045.5,0.214,748.5,01.17,0.508
2017-05-18 00:21:00,1638E-3,5C000400,-0724,0836,12108,030.2,045.5,0.215,748.5,01.17,0.508
2017-05-18 00:22:00,1831E-3,5C000400,-0724,0837,11974,030.0,045.5,0.215,748.5,01.17,0.508
2017-05-18 00:23:00,1705E-3,5C000400,-0724,0837,12089,029.9,045.5,0.215,748.5,01.17,0.508
2017-05-18 00:24:00,1703E-3,5C000400,-0724,0837,12139,029.7,045.5,0.215,748.5,01.17,0.508
2017-05-18 00:25:00,1659E-3,5C000400,-0724,0836,12081,029.6,045.5,0.215,748.5,01.17,0.508
2017-05-18 00:26:00,1621E-3,5C000400,-0724,0837,12021,029.6,045.5,0.216,748.5,01.17,0.508
2017-05-18 00:27:00,1766E-3,5C000400,-0724,0837,12154,029.5,045.5,0.216,748.5,01.17,0.508
2017-05-18 00:28:00,1574E-3,5C000400,-0724,0837,12143,029.5,045.5,0.216,748.5,01.17,0.508
2017-05-18 00:29:00,1762E-3,5C000400,-0724,0836,12041,029.4,045.5,0.216,748.5,01.17,0.508
2017-05-18 00:30:00,1761E-3,5C000400,-0724,0837,12147,029.3,045.5,0.217,748.5,01.17,0.508
2017-05-18 00:31:00,1817E-3,5C000400,-0724,0837,12038,029.2,045.5,0.217,748.5,01.17,0.508
2017-05-18 00:32:00,1714E-3,5C000400,-0724,0837,12196,029.1,045.5,0.217,748.5,01.17,0.508
2017-05-18 00:33:00,1769E-3,5C000400,-0724,0837,12119,029.1,045.5,0.217,748.5,01.17,0.508
2017-05-18 00:34:00,1672E-3,5C000400,-0724,0836,12123,029.1,045.5,0.217,748.5,01.17,0.508
2017-05-18 00:35:00,1794E-3,5C000400,-0724,0837,12041,029.1,045.5,0.218,748.5,01.17,0.508
2017-05-18 00:36:00,1799E-3,5C000400,-0724,0837,12035,029.2,045.5,0.218,748.5,01.17,0.508
2017-05-18 00:37:00,1650E-3,5C000400,-0724,0837,11997,029.2,045.5,0.218,748.5,01.17,0.508
2017-05-18 00:38:00,1721E-3,5C000400,-0724,0837,12064,029.3,045.5,0.217,748.5,01.17,0.508
2017-05-18 00:39:00,1706E-3,5C000400,-0724,0837,12021,029.3,045.5,0.218,748.5,01.17,0.508
2017-05-18 00:40:00,1641E-3,5C000400,-0724,0836,12005,029.4,045.5,0.218,748.5,01.17,0.508
2017-05-18 00:41:00,1842E-3,5C000400,-0724,0837,12064,029.5,045.5,0.218,748.5,01.17,0.508
2017-05-18 00:42:00,1701E-3,5C000400,-0724,0836,12090,029.5,045.5,0.218,748.5,01.17,0.508
2017-05-18 00:43:00,1676E-3,5C000400,-0724,0837,12142,029.6,045.5,0.218,748.5,01.17,0.508
2017-05-18 00:44:00,1767E-3,5C000400,-0724,0837,12046,029.6,045.5,0.218,748.5,01.17,0.508
2017-05-18 00:45:00,1700E-3,5C000400,-0724,0837,12067,029.7,045.5,0.218,748.5,01.17,0.508
2017-05-18 00:46:00,1829E-3,5C000400,-0724,0837,12139,029.7,045.5,0.217,748.5,01.17,0.508
2017-05-18 00:47:00,1671E-3,5C000400,-0724,0837,12206,029.8,045.5,0.218,748.5,01.17,0.508
2017-05-18 00:48:00,1672E-3,5C000400,-0724,0837,12134,029.9,045.5,0.217,748.5,01.17,0.508
2017-05-18 00:49:00,1707E-3,5C000400,-0724,0837,11949,029.9,045.5,0.217,748.6,01.17,0.508
2017-05-18 00:50:00,1784E-3,5C000400,-0724,0837,12142,030.0,045.5,0.217,748.5,01.17,0.508
2017-05-18 00:51:00,1819E-3,5C000400,-0724,0837,12003,030.0,045.5,0.217,748.5,01.17,0.508
2017-05-18 00:52:00,1721E-3,5C000400,-0724,0837,12123,030.1,045.5,0.217,748.5,01.17,0.508
2017-05-18 00:53:00,1697E-3,5C000400,-0724,0836,11854,030.1,045.5,0.217,748.5,01.17,0.508
2017-05-18 00:54:00,1687E-3,5C000400,-0724,0837,12081,030.2,045.5,0.217,748.5,01.17,0.508
2017-05-18 00:55:00,1796E-3,5C000400,-0724,0837,12054,030.2,045.5,0.217,748.5,01.17,0.508
2017-05-18 00:56:00,1751E-3,5C000400,-0724,0837,12010,030.3,045.5,0.217,748.5,01.17,0.508
2017-05-18 00:57:00,1739E-3,5C000400,-0724,0836,11979,030.3,045.5,0.216,748.5,01.17,0.508
2017-05-18 00:58:00,1751E-3,5C000400,-0724,0837,11971,030.4,045.5,0.216,748.5,01.17,0.508
2017-05-18 00:59:00,1795E-3,5C000400,-0724,0836,12082,030.4,045.5,0.216,748.5,01.17,0.508
2017-05-18 01:00:00,1791E-3,5C000400,-0724,0837,12010,030.4,045.5,0.216,748.5,01.17,0.508
2017-05-18 01:01:00,1712E-3,5C000400,-0724,0836,12026,030.4,045.5,0.216,748.5,01.17,0.508
2017-05-18 01:02:00,1781E-3,5C000400,-0724,0837,11909,030.4,045.5,0.216,748.4,01.17,0.508
2017-05-18 01:03:00,1726E-3,5C000400,-0724,0837,11997,030.4,045.5,0.216,748.4,01.17,0.508
2017-05-18 01:04:00,1760E-3,5C000400,-0724,0837,12176,030.4,045.5,0.216,748.5,01.17,0.508
2017-05-18 01:05:00,1665E-3,5C000400,-0724,0837,11970,030.2,045.5,0.216,748.5,01.17,0.508
2017-05-18 01:06:00,1777E-3,5C000400,-0724,0838,12031,030.1,045.5,0.216,748.5,01.17,0.508
2017-05-18 01:07:00,1652E-3,5C000400,-0724,0837,12090,029.9,045.5,0.216,748.6,01.17,0.508
2017-05-18 01:08:00,1792E-3,5C000400,-0724,0837,11992,029.7,045.5,0.216,748.6,01.17,0.508
2017-05-18 01:09:00,1812E-3,5C000400,-0724,0836,11975,029.5,045.5,0.216,748.6,01.17,0.508
2017-05-18 01:10:00,1668E-3,5C000400,-0724,0836,11955,029.4,045.5,0.216,748.6,01.17,0.508
2017-05-18 01:11:00,1730E-3,5C000400,-0724,0836,11998,029.3,045.5,0.216,748.6,01.17,0.508
2017-05-18 01:12:00,1663E-3,5C000400,-0724,0836,12077,029.2,045.5,0.217,748.6,01.17,0.508
2017-05-18 01:13:00,1876E-3,5C000400,-0724,0836,12044,029.1,045.5,0.217,748.6,01.17,0.508
2017-05-18 01:14:00,1853E-3,5C000400,-0724,0836,12040,029.1,045.5,0.217,748.6,01.17,0.508
2017-05-18 01:15:00,1731E-3,5C000400,-0724,0836,11878,029.1,045.5,0.218,748.6,01.17,0.508
2017-05-18 01:16:00,1692E-3,5C000400,-0724,0837,12046,028.9,045.5,0.218,748.6,01.17,0.508
2017-05-18 01:17:00,1779E-3,5C000400,-0724,0836,12177,028.8,045.5,0.218,748.6,01.17,0.508
2017-05-18 01:18:00,1694E-3,5C000400,-0724,0837,11991,028.8,045.5,0.218,748.6,01.17,0.508
2017-05-18 01:19:00,1715E-3,5C000400,-0724,0837,12037,028.8,045.5,0.218,748.6,01.17,0.508
2017-05-18 01:20:00,1723E-3,5C000400,-0724,0836,12033,028.8,045.5,0.218,748.6,01.17,0.508
2017-05-18 01:21:00,1708E-3,5C000400,-0724,0837,12130,028.8,045.5,0.219,748.6,01.17,0.508
2017-05-18 01:22:00,1762E-3,5C000400,-0724,0836,12092,028.9,045.5,0.219,748.7,01.17,0.508
2017-05-18 01:23:00,1630E-3,5C000400,-0724,0836,12075,028.9,045.5,0.218,748.6,01.17,0.508
2017-05-18 01:24:00,1678E-3,5C000400,-0724,0836,12114,029.0,045.5,0.219,748.6,01.17,0.508
2017-05-18 01:25:00,1685E-3,5C000400,-0724,0836,11946,029.1,045.5,0.219,748.6,01.17,0.508
2017-05-18 01:26:00,1763E-3,5C000400,-0724,0837,12107,029.1,045.5,0.218,748.6,01.17,0.508
2017-05-18 01:27:00,1690E-3,5C000400,-0724,0837,12083,029.1,045.5,0.218,748.6,01.17,0.508
2017-05-18 01:28:00,1641E-3,5C000400,-0724,0837,12082,029.0,045.5,0.219,748.6,01.17,0.508
2017-05-18 01:29:00,1819E-3,5C000400,-0724,0837,12132,028.9,045.5,0.219,748.6,01.17,0.508
2017-05-18 01:30:00,1680E-3,5C000400,-0724,0837,12143,028.8,045.5,0.218,748.6,01.17,0.508
2017-05-18 01:31:00,1761E-3,5C000400,-0724,0837,12054,028.7,045.4,0.219,748.6,01.17,0.508
2017-05-18 01:32:00,1699E-3,5C000400,-0724,0836,12182,028.6,045.5,0.219,748.6,01.17,0.508
2017-05-18 01:33:00,1787E-3,5C000400,-0724,0837,12020,028.5,045.5,0.219,748.6,01.17,0.508
2017-05-18 01:34:00,1721E-3,5C000400,-0724,0836,12142,028.5,045.5,0.219,748.6,01.17,0.508
2017-05-18 01:35:00,1839E-3,5C000400,-0724,0836,11957,028.5,045.5,0.219,748.6,01.17,0.508
2017-05-18 01:36:00,1716E-3,5C000400,-0724,0836,12091,028.4,045.4,0.219,748.6,01.17,0.508
2017-05-18 01:37:00,1654E-3,5C000400,-0724,0836,12104,028.4,045.5,0.219,748.6,01.17,0.508
2017-05-18 01:38:00,1706E-3,5C000400,-0724,0836,12158,028.3,045.5,0.219,748.6,01.17,0.508
2017-05-18 01:39:00,1694E-3,5C000400,-0724,0836,12109,028.3,045.5,0.219,748.6,01.17,0.508
2017-05-18 01:40:00,1742E-3,5C000400,-0724,0837,12129,028.3,045.5,0.220,748.6,01.17,0.508
2017-05-18 01:41:00,1760E-3,5C000400,-0724,0837,12120,028.3,045.5,0.220,748.6,01.17,0.508
2017-05-18 01:42:00,1667E-3,5C000400,-0724,0836,12064,028.2,045.5,0.220,748.7,01.17,0.508
2017-05-18 01:43:00,1843E-3,5C000400,-0724,0836,12006,028.2,045.5,0.220,748.7,01.17,0.508
2017-05-18 01:44:00,1777E-3,5C000400,-0724,0836,12077,028.1,045.5,0.220,748.7,01.17,0.508
2017-05-18 01:45:00,1622E-3,5C000400,-0724,0836,11952,028.2,045.4,0.220,748.7,01.17,0.508
2017-05-18 01:46:00,1805E-3,5C000400,-0724,0837,12085,028.2,045.5,0.220,748.7,01.17,0.508
2017-05-18 01:47:00,1848E-3,5C000400,-0724,0836,12095,028.1,045.5,0.220,748.7,01.17,0.508
2017-05-18 01:48:00,1723E-3,5C000400,-0724,0836,12090,028.1,045.5,0.220,748.7,01.17,0.508
2017-05-18 01:49:00,1762E-3,5C000400,-0724,0836,12073,028.0,045.5,0.220,748.8,01.17,0.508
2017-05-18 01:50:00,1742E-3,5C000400,-0724,0836,12131,028.0,045.4,0.221,748.8,01.17,0.508
2017-05-18 01:51:00,1724E-3,5C000400,-0724,0836,11993,028.0,045.5,0.220,748.8,01.17,0.508
2017-05-18 01:52:00,1643E-3,5C000400,-0724,0836,12140,028.1,045.4,0.220,748.8,01.17,0.508
2017-05-18 01:53:00,1838E-3,5C000400,-0724,0836,11967,028.0,045.5,0.221,748.8,01.17,0.508
2017-05-18 01:54:00,1708E-3,5C000400,-0724,0836,12023,028.0,045.5,0.221,748.8,01.17,0.508
2017-05-18 01:55:00,1787E-3,5C000400,-0724,0837,12056,028.0,045.4,0.220,748.8,01.17,0.508
2017-05-18 01:56:00,1624E-3,5C000400,-0724,0836,12028,028.0,045.4,0.220,748.8,01.17,0.508
2017-05-18 01:57:00,1727E-3,5C000400,-0724,0836,12105,027.9,045.4,0.221,748.8,01.17,0.508
2017-05-18 01:58:00,1749E-3,5C000400,-0724,0836,12119,027.9,045.4,0.221,748.8,01.17,0.508
2017-05-18 01:59:00,1754E-3,5C000400,-0724,0836,12039,027.9,045.5,0.220,748.8,01.17,0.508
2017-05-18 02:00:00,1675E-3,5C000400,-0724,0837,12048,027.9,045.5,0.221,748.8,01.17,0.508
2017-05-18 02:01:00,1699E-3,5C000400,-0724,0836,12000,027.9,045.5,0.221,748.8,01.17,0.508
2017-05-18 02:02:00,1702E-3,5C000400,-0724,0836,12103,027.9,045.5,0.221,748.8,01.17,0.508
2017-05-18 02:03:00,1646E-3,5C000400,-0724,0836,12017,027.8,045.5,0.221,748.8,01.17,0.508
2017-05-18 02:04:00,1704E-3,5C000400,-0724,0837,12061,027.9,045.4,0.221,748.8,01.17,0.508
2017-05-18 02:05:00,1855E-3,5C000400,-0724,0836,11956,027.9,045.4,0.221,748.8,01.17,0.508
2017-05-18 02:06:00,1747E-3,5C000400,-0724,0836,12171,027.9,045.5,0.221,748.8,01.17,0.508
2017-05-18 02:07:00,1743E-3,5C000400,-0724,0836,12141,027.9,045.4,0.221,748.8,01.17,0.508
2017-05-18 02:08:00,1742E-3,5C000400,-0724,0836,12182,027.8,045.5,0.221,748.8,01.17,0.508
2017-05-18 02:09:00,1565E-3,5C000400,-0724,0837,12039,027.8,045.4,0.221,748.8,01.17,0.508
2017-05-18 02:10:00,1788E-3,5C000400,-0724,0836,12190,027.8,045.4,0.221,748.8,01.17,0.508
2017-05-18 02:11:00,1664E-3,5C000400,-0724,0837,12056,027.8,045.5,0.221,748.9,01.17,0.508
2017-05-18 02:12:00,1490E-3,5C000400,-0724,0837,12231,027.8,045.4,0.221,748.9,01.17,0.508
2017-05-18 02:13:00,1701E-3,5C000400,-0724,0836,12153,027.8,045.5,0.221,748.9,01.17,0.508
2017-05-18 02:14:00,1684E-3,5C000400,-0724,0836,12088,027.8,045.4,0.221,748.9,01.17,0.508
2017-05-18 02:15:00,1610E-3,5C000400,-0724,0836,12103,027.8,045.5,0.221,748.9,01.17,0.508
2017-05-18 02:16:00,1735E-3,5C000400,-0724,0836,12079,027.8,045.5,0.221,748.9,01.17,0.508
2017-05-18 02:17:00,1851E-3,5C000400,-0724,0836,12162,027.7,045.4,0.221,748.9,01.17,0.508
2017-05-18 02:18:00,1696E-3,5C000400,-0724,0837,12125,027.8,045.4,0.221,748.9,01.17,0.508
2017-05-18 02:19:00,1789E-3,5C000400,-0724,0836,12182,027.8,045.4,0.221,748.8,01.17,0.508
2017-05-18 02:20:00,1722E-3,5C000400,-0724,0836,12139,027.8,045.4,0.221,748.9,01.17,0.508
2017-05-18 02:21:00,1707E-3,5C000400,-0724,0837,12002,027.8,045.4,0.221,748.9,01.17,0.508
2017-05-18 02:22:00,1720E-3,5C000400,-0724,0837,12231,027.8,045.4,0.221,748.9,01.17,0.508
2017-05-18 02:23:00,1636E-3,5C000400,-0724,0837,12119,027.8,045.4,0.221,748.9,01.17,0.508
2017-05-18 02:24:00,1855E-3,5C000400,-0724,0836,12164,027.7,045.5,0.221,748.9,01.17,0.508
2017-05-18 02:25:00,1617E-3,5C000400,-0724,0836,12149,027.7,045.5,0.221,748.9,01.17,0.508
2017-05-18 02:26:00,1770E-3,5C000400,-0724,0836,12174,027.8,045.4,0.221,748.8,01.17,0.508
2017-05-18 02:27:00,1695E-3,5C000400,-0724,0836,12053,027.7,045.4,0.221,748.8,01.17,0.508
2017-05-18 02:28:00,1761E-3,5C000400,-0724,0836,11882,027.7,045.4,0.221,748.8,01.17,0.508
2017-05-18 02:29:00,1752E-3,5C000400,-0724,0835,12027,027.7,045.4,0.221,748.9,01.17,0.508
2017-05-18 02:30:00,1814E-3,5C000400,-0724,0836,12058,027.7,045.4,0.221,748.9,01.17,0.508
2017-05-18 02:31:00,1656E-3,5C000400,-0724,0837,12043,027.8,045.5,0.221,748.9,01.17,0.508
2017-05-18 02:32:00,1765E-3,5C000400,-0724,0836,12112,027.8,045.5,0.221,748.8,01.17,0.508
2017-05-18 02:33:00,1723E-3,5C000400,-0724,0836,11889,027.8,045.4,0.221,748.9,01.17,0.508
2017-05-18 02:34:00,1778E-3,5C000400,-0724,0837,11952,027.7,045.4,0.221,748.9,01.17,0.508
2017-05-18 02:35:00,1670E-3,5C000400,-0724,0836,12019,027.7,045.4,0.221,748.9,01.17,0.508
2017-05-18 02:36:00,1729E-3,5C000400,-0724,0836,12140,027.7,045.4,0.221,748.9,01.17,0.508
2017-05-18 02:37:00,1788E-3,5C000400,-0724,0836,11898,027.7,045.4,0.221,748.9,01.17,0.508
2017-05-18 02:38:00,1799E-3,5C000400,-0724,0836,12074,027.7,045.5,0.222,748.9,01.17,0.508
2017-05-18 02:39:00,1766E-3,5C000400,-0724,0837,12126,027.7,045.4,0.221,748.9,01.17,0.508
2017-05-18 02:40:00,1878E-3,5C000400,-0724,0836,12039,027.7,045.5,0.221,748.8,01.17,0.508
2017-05-18 02:41:00,1775E-3,5C000400,-0724,0836,11982,027.7,045.4,0.221,748.8,01.17,0.508
2017-05-18 02:42:00,1820E-3,5C000400,-0724,0836,12095,027.7,045.4,0.222,748.9,01.17,0.508
2017-05-18 02:43:00,1827E-3,5C000400,-0724,0836,12069,027.7,045.4,0.221,748.9,01.17,0.508
2017-05-18 02:44:00,1833E-3,5C000400,-0724,0836,12050,027.6,045.4,0.221,748.9,01.17,0.508
2017-05-18 02:45:00,1758E-3,5C000400,-0724,0836,11964,027.6,045.4,0.221,748.9,01.17,0.508
2017-05-18 02:46:00,1742E-3,5C000400,-0724,0836,12014,027.6,045.4,0.222,748.9,01.17,0.508
2017-05-18 02:47:00,1674E-3,5C000400,-0724,0836,12037,027.7,045.5,0.221,748.9,01.17,0.508
2017-05-18 02:48:00,1694E-3,5C000400,-0724,0836,12063,027.7,045.5,0.221,748.9,01.17,0.508
2017-05-18 02:49:00,1779E-3,5C000400,-0724,0836,12141,027.6,045.5,0.222,748.9,01.17,0.508
2017-05-18 02:50:00,1781E-3,5C000400,-0724,0836,12017,027.6,045.4,0.222,748.9,01.17,0.508
2017-05-18 02:51:00,1715E-3,5C000400,-0724,0836,12021,027.7,045.4,0.221,748.9,01.17,0.508
2017-05-18 02:52:00,1749E-3,5C000400,-0724,0836,12122,027.7,045.5,0.221,748.9,01.17,0.508
2017-05-18 02:53:00,1657E-3,5C000400,-0724,0836,12025,027.6,045.5,0.222,748.9,01.17,0.508
2017-05-18 02:54:00,1709E-3,5C000400,-0724,0836,11812,027.6,045.4,0.222,748.8,01.17,0.508
2017-05-18 02:55:00,1621E-3,5C000400,-0724,0836,12120,027.7,045.4,0.221,748.9,01.17,0.508
2017-05-18 02:56:00,1773E-3,5C000400,-0724,0836,11922,027.7,045.4,0.221,748.9,01.17,0.508
2017-05-18 02:57:00,1679E-3,5C000400,-0724,0837,12157,027.7,045.5,0.222,748.8,01.17,0.508
2017-05-18 02:58:00,1733E-3,5C000400,-0724,0836,12073,027.7,045.4,0.222,748.9,01.17,0.508
2017-05-18 02:59:00,1695E-3,5C000400,-0724,0836,11987,027.6,045.4,0.221,748.9,01.17,0.508
2017-05-18 03:00:00,1660E-3,5C000400,-0724,0837,12188,027.6,045.4,0.221,748.8,01.17,0.508
2017-05-18 03:01:00,1835E-3,5C000400,-0724,0836,12158,027.6,045.4,0.222,748.8,01.17,0.508
2017-05-18 03:02:00,1745E-3,5C000400,-0724,0836,12085,027.7,045.4,0.222,748.8,01.17,0.508
2017-05-18 03:03:00,1733E-3,5C000400,-0724,0835,12041,027.7,045.4,0.222,748.8,01.17,0.508
2017-05-18 03:04:00,1874E-3,5C000400,-0724,0836,12178,027.7,045.5,0.222,748.8,01.17,0.508
2017-05-18 03:05:00,1660E-3,5C000400,-0724,0836,12039,027.7,045.4,0.221,748.8,01.17,0.508
2017-05-18 03:06:00,1753E-3,5C000400,-0724,0836,12061,027.7,045.4,0.222,748.8,01.17,0.508
2017-05-18 03:07:00,1833E-3,5C000400,-0724,0836,12096,027.6,045.4,0.222,748.8,01.17,0.508
2017-05-18 03:08:00,1631E-3,5C000400,-0724,0836,12016,027.6,045.5,0.221,748.9,01.17,0.508
2017-05-18 03:09:00,1643E-3,5C000400,-0724,0837,12114,027.6,045.4,0.221,748.9,01.17,0.508
2017-05-18 03:10:00,1731E-3,5C000400,-0724,0836,12180,027.6,045.4,0.222,748.9,01.17,0.508
2017-05-18 03:11:00,1797E-3,5C000400,-0724,0836,11999,027.6,045.4,0.222,748.9,01.17,0.508
2017-05-18 03:12:00,1768E-3,5C000400,-0724,0836,12021,027.6,045.4,0.221,748.9,01.17,0.508
2017-05-18 03:13:00,1728E-3,5C000400,-0724,0836,12201,027.6,045.5,0.221,748.9,01.17,0.508
2017-05-18 03:14:00,1836E-3,5C000400,-0724,0836,12026,027.6,045.4,0.222,748.9,01.17,0.508
2017-05-18 03:15:00,1776E-3,5C000400,-0724,0836,11976,027.6,045.4,0.222,748.9,01.17,0.508
2017-05-18 03:16:00,1722E-3,5C000400,-0724,0836,12132,027.6,045.4,0.222,748.9,01.17,0.508
2017-05-18 03:17:00,1809E-3,5C000400,-0724,0836,12012,027.6,045.4,0.221,748.9,01.17,0.508
2017-05-18 03:18:00,1696E-3,5C000400,-0724,0836,12108,027.5,045.4,0.222,749.0,01.17,0.508
2017-05-18 03:19:00,1811E-3,5C000400,-0724,0836,12048,027.5,045.4,0.222,749.0,01.17,0.508
2017-05-18 03:20:00,1678E-3,5C000400,-0724,0836,12118,027.5,045.4,0.222,749.0,01.17,0.508
2017-05-18 03:21:00,1704E-3,5C000400,-0724,0836,12075,027.5,045.5,0.221,749.0,01.17,0.508
2017-05-18 03:22:00,1817E-3,5C000400,-0724,0836,12074,027.5,045.4,0.222,749.0,01.17,0.508
2017-05-18 03:23:00,1685E-3,5C000400,-0724,0837,12167,027.5,045.4,0.222,749.0,01.17,0.508
2017-05-18 03:24:00,1681E-3,5C000400,-0724,0835,12114,027.5,045.4,0.222,749.0,01.17,0.508
2017-05-18 03:25:00,1725E-3,5C000400,-0724,0836,12000,027.5,045.4,0.222,748.9,01.17,0.508
2017-05-18 03:26:00,1776E-3,5C000400,-0724,0836,11966,027.5,045.5,0.222,748.9,01.17,0.508
2017-05-18 03:27:00,1693E-3,5C000400,-0724,0835,12060,027.5,045.5,0.222,748.9,01.17,0.508
2017-05-18 03:28:00,1706E-3,5C000400,-0724,0836,12029,027.5,045.5,0.222,748.9,01.17,0.508
2017-05-18 03:29:00,1785E-3,5C000400,-0724,0836,12056,027.5,045.5,0.222,748.9,01.17,0.508
2017-05-18 03:30:00,1721E-3,5C000400,-0724,0836,11972,027.5,045.5,0.222,748.9,01.17,0.508
2017-05-18 03:31:00,1665E-3,5C000400,-0724,0836,11981,027.5,045.5,0.222,748.9,01.17,0.508
2017-05-18 03:32:00,1744E-3,5C000400,-0724,0837,12176,027.5,045.4,0.222,748.9,01.17,0.508
2017-05-18 03:33:00,1779E-3,5C000400,-0724,0836,12099,027.5,045.4,0.222,748.9,01.17,0.508
2017-05-18 03:34:00,1650E-3,5C000400,-0724,0836,12124,027.5,045.4,0.222,748.9,01.17,0.508
2017-05-18 03:35:00,1701E-3,5C000400,-0724,0836,12070,027.5,045.4,0.222,748.9,01.17,0.508
2017-05-18 03:36:00,1765E-3,5C000400,-0724,0835,12092,027.5,045.4,0.222,748.9,01.17,0.508
2017-05-18 03:37:00,1858E-3,5C000400,-0724,0836,12082,027.5,045.4,0.222,748.9,01.17,0.508
2017-05-18 03:38:00,1790E-3,5C000400,-0724,0835,12070,027.5,045.4,0.222,748.9,01.17,0.508
2017-05-18 03:39:00,1761E-3,5C000400,-0724,0836,12108,027.5,045.4,0.222,748.9,01.17,0.508
2017-05-18 03:40:00,1816E-3,5C000400,-0724,0836,12182,027.5,045.4,0.222,748.9,01.17,0.508
2017-05-18 03:41:00,1713E-3,5C000400,-0724,0836,12152,027.5,045.4,0.222,748.9,01.17,0.508
2017-05-18 03:42:00,1783E-3,5C000400,-0724,0836,12041,027.5,045.4,0.222,748.9,01.17,0.508
2017-05-18 03:43:00,1717E-3,5C000400,-0724,0836,12169,027.5,045.4,0.222,748.9,01.17,0.508
2017-05-18 03:44:00,1823E-3,5C000400,-0724,0835,12019,027.5,045.4,0.222,748.9,01.17,0.508
2017-05-18 03:45:00,1791E-3,5C000400,-0724,0836,12147,027.5,045.5,0.222,748.9,01.17,0.508
2017-05-18 03:46:00,1895E-3,5C000400,-0724,0835,11998,027.5,045.4,0.222,748.9,01.17,0.508
2017-05-18 03:47:00,1786E-3,5C000400,-0724,0835,12083,027.5,045.4,0.222,748.9,01.17,0.508
2017-05-18 03:48:00,1744E-3,5C000400,-0724,0836,12146,027.5,045.4,0.222,748.9,01.17,0.508
2017-05-18 03:49:00,1758E-3,5C000400,-0724,0836,12018,027.5,045.4,0.222,749.0,01.17,0.508
2017-05-18 03:50:00,1653E-3,5C000400,-0724,0836,12157,027.5,045.4,0.222,749.0,01.17,0.508
2017-05-18 03:51:00,1584E-3,5C000400,-0724,0836,12148,027.5,045.4,0.222,749.0,01.17,0.508
2017-05-18 03:52:00,1766E-3,5C000400,-0724,0836,12040,027.4,045.4,0.222,749.0,01.17,0.508
2017-05-18 03:53:00,1540E-3,5C000400,-0724,0836,12020,027.4,045.5,0.222,749.0,01.17,0.508
2017-05-18 03:54:00,1695E-3,5C000400,-0724,0836,12131,027.4,045.4,0.222,749.0,01.17,0.508
2017-05-18 03:55:00,1727E-3,5C000400,-0724,0836,12099,027.4,045.4,0.222,748.9,01.17,0.508
2017-05-18 03:56:00,1818E-3,5C000400,-0724,0836,12025,027.4,045.4,0.222,748.9,01.17,0.508
2017-05-18 03:57:00,1746E-3,5C000400,-0724,0836,12023,027.4,045.4,0.222,748.9,01.17,0.508
2017-05-18 03:58:00,1688E-3,5C000400,-0724,0836,12184,027.4,045.4,0.222,749.0,01.17,0.508
2017-05-18 03:59:00,1795E-3,5C000400,-0724,0835,11960,027.4,045.4,0.222,748.9,01.17,0.508
2017-05-18 04:00:00,1685E-3,5C000400,-0724,0836,12077,027.4,045.5,0.222,749.0,01.17,0.508
2017-05-18 04:01:00,1743E-3,5C000400,-0724,0836,12060,027.4,045.4,0.223,749.0,01.17,0.508
2017-05-18 04:02:00,1661E-3,5C000400,-0724,0836,12080,027.4,045.4,0.223,748.9,01.17,0.508
2017-05-18 04:03:00,1679E-3,5C000400,-0724,0836,12208,027.4,045.4,0.222,748.9,01.17,0.508
2017-05-18 04:04:00,1698E-3,5C000400,-0724,0837,11951,027.4,045.4,0.222,748.9,01.17,0.508
2017-05-18 04:05:00,1697E-3,5C000400,-0724,0836,12027,027.4,045.4,0.222,749.0,01.17,0.508
2017-05-18 04:06:00,1752E-3,5C000400,-0724,0836,12024,027.4,045.4,0.222,749.0,01.17,0.508
2017-05-18 04:07:00,1661E-3,5C000400,-0724,0837,12011,027.4,045.4,0.222,748.9,01.17,0.508
2017-05-18 04:08:00,1787E-3,5C000400,-0724,0836,12185,027.4,045.4,0.222,749.0,01.17,0.508
2017-05-18 04:09:00,1754E-3,5C000400,-0724,0836,11987,027.4,045.4,0.222,748.9,01.17,0.508
2017-05-18 04:10:00,1682E-3,5C000400,-0724,0836,12069,027.3,045.4,0.222,749.0,01.17,0.508
2017-05-18 04:11:00,1747E-3,5C000400,-0724,0835,12034,027.3,045.4,0.222,749.0,01.17,0.508
2017-05-18 04:12:00,1749E-3,5C000400,-0724,0836,12093,027.3,045.4,0.222,749.0,01.17,0.508
2017-05-18 04:13:00,1840E-3,5C000400,-0724,0836,11996,027.3,045.4,0.222,749.0,01.17,0.508
2017-05-18 04:14:00,1766E-3,5C000400,-0724,0836,12212,027.3,045.5,0.222,749.0,01.17,0.508
2017-05-18 04:15:00,1751E-3,5C000400,-0724,0836,12090,027.3,045.4,0.222,749.0,01.17,0.508
2017-05-18 04:16:00,1636E-3,5C000400,-0724,0837,12160,027.3,045.4,0.222,749.0,01.17,0.508
2017-05-18 04:17:00,1785E-3,5C000400,-0724,0836,12170,027.3,045.4,0.222,749.0,01.17,0.508
2017-05-18 04:18:00,1725E-3,5C000400,-0724,0836,12083,027.3,045.4,0.222,749.1,01.17,0.508
2017-05-18 04:19:00,1716E-3,5C000400,-0724,0835,12016,027.3,045.4,0.222,749.1,01.17,0.508
2017-05-18 04:20:00,1711E-3,5C000400,-0724,0836,12079,027.3,045.4,0.222,749.1,01.17,0.508